Location: Puyveet
(43.7602°N, 5.3409°E)
Time: 22:33:40
(UTC+00:00)

Daily predictions for brighter satellites

Satellite Brightness Start Highest point End
(mag) Time Altitude Azimuth Time Altitude Azimuth Time Altitude Azimuth
Cosmos 2263 Rocket 3.4 17:52:09 10° SW 17:57:29 47° WNW 18:02:54 10° NNE
Cosmos 1939 Rocket 3.2 17:57:00 10° S 18:01:08 79° WSW 18:05:19 10° NNW
USA 116 4.3 17:57:42 10° NNE 18:01:12 37° E 18:05:07 10° SSE
Cosmos 1844 Rocket 3.0 17:56:45 10° S 18:01:57 43° ESE 18:07:13 10° NE
Cosmos 1842 4.0 17:59:11 10° NNW 18:03:00 57° W 18:06:48 10° S
Cosmos 372 Rocket 4.0 17:58:36 10° SSW 18:03:49 77° ESE 18:09:03 10° NNE
Cosmos 1707 2.8 18:02:12 10° N 18:05:58 52° E 18:09:42 10° SSE
CZ-2C R/B 3.3 18:04:26 10° SW 18:06:58 17° SSW 18:09:23 10° SSE
NOSS 3-2 (C) 4.4 18:00:00 10° NNW 18:07:11 49° NE 18:15:16 10° ESE
Cosmos 1844 4.1 18:04:10 10° S 18:09:25 40° ESE 18:14:39 10° NE
Cosmos 2034 Rocket 4.5 18:04:06 10° SSE 18:09:56 39° E 18:15:45 10° NNE
ISS -2.2 18:07:33 10° W 18:10:39 32° NNW 18:13:45 10° NE
NOSS 3-4 (A) 4.3 18:06:08 10° SSE 18:10:50 25° ESE 18:15:44 10° ENE
NOSS 3-4 (C) 4.3 18:06:16 10° SSE 18:10:57 25° ESE 18:15:49 10° ENE
USA 186 3.8 18:11:03 11° E 18:12:25 13° ENE 18:13:59 10° NE
Meteor 1-12 Rocket 4.3 18:07:27 10° S 18:13:14 61° E 18:18:56 10° NNE
Cosmos 1300 Rocket 3.6 18:14:16 10° S 18:18:36 61° E 18:22:59 10° NNE
Okean 1 Rocket 4.2 18:18:29 10° SE 18:21:59 23° E 18:25:29 10° NE
Sich 1 Rocket 3.9 18:18:25 10° SSW 18:22:56 76° W 18:27:31 10° N
Cosmos 2298 Rocket 4.0 18:19:46 10° SSW 18:25:05 80° ESE 18:30:27 10° NNE
CENTAUR R/B 3.4 18:18:25 10° NNW 18:26:20 59° NE 18:34:46 11° SE
Cosmos 1833 Rocket 4.4 18:23:52 10° N 18:27:28 17° NE 18:30:12 12° ENE
CSL-04 Debris 4.1 18:23:56 10° SSE 18:29:18 77° ENE 18:34:42 10° NNW
CSL-04 Rocket 3.7 18:25:50 10° SSE 18:31:15 76° ENE 18:36:47 10° N
Cosmos 1766 4.4 18:29:54 10° SE 18:32:59 22° E 18:36:04 10° NE
ATLAS 2AS CENTAUR R/B 3.4 18:25:55 10° S 18:33:06 40° ESE 18:40:22 10° NE
Okean 2 Rocket 3.1 18:28:39 10° S 18:33:09 89° E 18:37:37 10° N
YAOGAN 1 3.0 18:29:37 10° S 18:33:55 67° W 18:38:14 10° NNW
Cosmos 1025 Rocket 3.0 18:31:01 10° N 18:35:26 80° E 18:39:50 10° S
ATLAS 3B R/B 3.8 18:32:26 10° NNW 18:38:15 29° NE 18:42:35 16° E
Abrixas rocket 2.3 18:38:17 10° WNW 18:41:03 49° NNE 18:42:11 29° ENE
SWAS 4.4 18:36:56 10° NNW 18:41:13 65° ENE 18:44:39 15° SE
CREW DRAGON DEMO-1 DEB 3.3 18:40:11 10° NW 18:43:07 44° NNE 18:44:16 29° E
Cosmos 1536 Rocket 3.5 18:40:45 10° N 18:45:13 75° E 18:49:41 10° SSE
Cosmos 1125 Rocket 3.4 18:40:27 10° SSW 18:45:44 75° ESE 18:51:04 10° NNE
SJ-6B 3.6 18:48:31 26° E 18:49:17 29° ENE 18:52:34 10° N
CZ-4 R/B 3.2 18:47:45 10° SSW 18:51:36 34° W 18:55:26 10° NNW
SJ-11-01 4.5 18:47:51 10° S 18:52:33 75° WSW 18:57:16 10° NNW
CZ-2C R/B 3.7 18:48:19 10° S 18:53:36 64° W 18:59:12 10° NNW
Cosmos 1464 Rocket 4.3 18:47:54 10° SSW 18:54:00 70° W 19:00:12 10° N
USA 238 DEB 4.0 18:48:24 10° NW 18:55:40 77° WSW 19:03:11 10° SSE
USA 238 4.0 18:48:31 10° NW 18:55:47 78° WSW 19:03:18 10° SSE
Cosmos 2285 Rocket 3.9 18:50:08 10° S 18:56:23 72° ESE 19:02:44 10° NNE
Cosmos 1674 2.6 18:53:44 10° N 18:57:35 68° E 19:00:17 18° SSE
Cosmos 2026 Rocket 4.4 18:52:21 10° N 18:58:24 42° ENE 19:02:16 21° SE
Cosmos 1092 Rocket 4.1 18:52:35 10° N 18:58:38 55° ENE 19:04:17 12° SSE
MOS 1 Rocket 3.2 18:59:39 10° N 19:04:01 75° WNW 19:08:16 10° SSW
TSX-5 3.8 19:04:00 10° SSW 19:07:40 62° ESE 19:12:21 10° NNE
ARGOS 3.2 19:03:48 10° S 19:09:10 79° WSW 19:14:35 10° NNW
Cosmos 1340 Rocket 4.2 19:15:11 24° NE 19:15:11 24° NE 19:17:05 10° NNE
CZ-2C R/B 2.7 19:08:49 10° NNE 19:14:22 63° E 19:19:55 10° S
Cosmos 1733 3.1 19:13:47 38° SSE 19:15:03 62° E 19:18:51 10° NNE
MOS 1 4.3 19:13:05 24° SSE 19:16:35 66° ENE 19:22:15 10° N
Lacrosse 5 rocket 3.6 19:16:12 10° NNW 19:19:03 17° NNE 19:20:43 14° NE
Cosmos 2082 Rocket 3.4 19:16:20 10° N 19:20:48 23° NE 19:21:17 23° ENE
Shenzhou-11 Module 4.5 19:20:26 10° WSW 19:20:33 11° WSW 19:20:33 11° WSW
BREEZE-M R/B 4.2 19:12:30 10° WSW 19:23:04 64° NNW 19:24:25 35° NE
BREEZE-M DEB (TANK) 3.6 19:19:42 10° WNW 19:23:08 59° SSW 19:27:36 27° SE
DMSP B5D2-2 4.0 19:18:55 10° NNE 19:24:12 65° ESE 19:29:26 10° S
Cosmos 494 Rocket 4.4 19:20:42 10° NNW 19:25:54 61° WSW 19:29:53 17° S
Cosmos 1805 3.6 19:23:06 10° SSW 19:26:58 64° W 19:30:52 10° N
OBJECT-B 2.8 19:28:48 21° NNE 19:28:48 21° NNE 19:30:06 10° N
Ariane Rocket 3.0 19:28:06 26° S 19:31:02 83° WSW 19:36:10 10° NNW
SL-08 RB Rocket 4.1 19:27:52 18° S 19:31:09 63° W 19:35:39 10° NNW
Milstar 3 Cent rocket 3.9 19:27:33 10° SW 19:31:56 18° S 19:32:38 17° S
H-2A R/B 3.5 19:28:05 10° SSW 19:32:38 35° W 19:37:20 10° NNW
USA 234 4.1 19:38:14 29° SSE 19:38:14 29° SSE 19:42:08 10° SSW
Cosmos 1269 Rocket 4.0 19:32:34 10° NNW 19:37:54 87° WSW 19:39:33 46° SSE
MetOp-A 4.1 19:40:20 37° S 19:42:33 83° WSW 19:47:57 10° NNW
USA 186 3.2 19:42:34 35° WSW 19:42:46 35° W 19:45:49 10° NNW
Cosmos 1626 2.7 19:39:09 10° N 19:42:02 52° NNW 19:42:02 52° NNW
Cosmos 1844 Rocket 4.5 19:41:05 10° WSW 19:45:59 31° NW 19:50:55 10° N
COSMOS 2406 3.1 19:41:27 10° NNW 19:47:09 76° ENE 19:47:56 64° ESE
ISS -1.5 19:45:31 10° NW 19:47:46 20° N 19:47:46 20° N
Cosmos 2278 Rocket 2.7 19:44:09 10° S 19:51:32 42° NE 19:55:20 10° NNE
Meteor 1-22 Rocket 4.4 19:48:28 10° SSW 19:54:21 77° W 20:00:27 10° N
Lacrosse 4 Rocket 3.1 19:50:51 10° NNW 19:52:52 23° N 19:52:52 23° N
Meteor 2-5 Rocket 4.3 19:51:48 10° NNW 19:57:21 55° W 20:00:46 24° SSW
Cosmos 909 Rocket 4.5 19:53:29 10° NNW 19:59:40 44° NE 19:59:55 43° NE
Meteor 1-24 Rocket 3.9 19:54:09 10° NNW 19:59:43 69° W 20:01:37 42° SSW
NOSS 3-4 (A) 3.9 19:55:22 10° SW 20:01:11 59° NW 20:07:26 10° NNE
NOSS 3-4 (C) 3.9 19:55:28 10° SW 20:01:17 60° NW 20:07:32 10° NNE
Resurs 01 Rocket 2.7 20:03:26 37° N 20:03:26 37° N 20:06:13 10° N
SL-14 R/B 4.3 19:58:56 10° NNW 20:01:55 44° NW 20:01:55 44° NW
Meteor 2-19 Rocket 4.3 19:57:50 10° N 20:03:47 68° ENE 20:03:47 68° ENE
Cosmos 1833 Rocket 2.6 20:06:33 10° NNW 20:11:54 80° N 20:11:54 80° N
Cosmos 2251 Rocket 4.3 20:09:51 10° NNW 20:13:44 43° NNE 20:13:44 43° NNE
CENTAUR R/B 4.1 20:09:25 10° NW 20:17:05 43° WSW 20:22:00 23° S
SPOT 3 Rocket 3.9 20:20:50 62° WNW 20:20:50 62° WNW 20:25:34 10° NNW
ATLAS 2AS CENTAUR R/B 3.6 20:16:10 10° SW 20:23:58 57° NW 20:31:43 10° NNE
ATLAS 3B R/B 2.6 20:22:46 10° NW 20:29:41 83° SW 20:29:50 82° SSW
Cosmos 1655 Rocket 4.2 20:32:22 10° N 20:37:50 68° NNW 20:37:50 68° NNW
Lacrosse 5 rocket 4.1 20:55:01 10° NW 20:56:20 18° NNW 20:56:20 18° NNW
Cosmos 2082 Rocket 3.5 20:59:46 10° NNW 21:03:08 36° NW 21:03:08 36° NW
Cosmos 2278 Rocket 4.3 21:33:01 21° WNW 21:34:18 23° NW 21:38:43 10° N
